Location: De Har
(53.3413°N, 6.6858°E)
Time: 20:07:19
(UTC+00:00)

Cosmos 1437 Rocket - Pass Details

Date: 22 April 2026
Orbit: 440 x 476 km, 81.2° (Epoch: 21 May)

Event Time Altitude Azimuth Distance (km) Brightness Sun altitude
Exits shadow 01:22:57 21° 296° (WNW) 1,086 4.3 -20.3°
Drops below altitude 10° 01:25:38 10° 346° (NNW) 1,596 5.8 -20.1°
Sets 01:28:07 0° 4° (N) 2,482 7.3 -20.0°
